This demonstration page uses our WeatherBlox Daily Observations layout. Learn more.

Left ArrowRight Arrow

Hourly Observations for May 9, 2020

Temp ( °F °C ) Dew Point ( °F °C ) Humidity (%) Winds ( mph kmh ) Pressure ( in mb ) Visibility ( mi km ) Precip ( " mm )
12:52 am 00:52 Clear 39 3.9 35 1.7 86 86 Calm 30.23 1024 10 16 0.00 0.00
1:52 am 01:52 Clear 38 3.3 35 1.7 89 89 Calm 30.25 1025 10 16 0.00 0.00
2:52 am 02:52 Clear 37 2.8 34 1.1 89 89 Calm 30.25 1025 10 16 0.00 0.00
3:52 am 03:52 Clear 38 3.3 35 1.7 89 89 Calm 30.26 1025 10 16 0.00 0.00
4:52 am 04:52 Clear 35 1.7 33 0.6 93 93 Calm 30.27 1025 10 16 0.00 0.00
5:52 am 05:52 Clear 35 1.7 33 0.6 93 93 Calm 30.29 1026 10 16 0.00 0.00
6:52 am 06:52 Sunny 36 2.2 34 1.1 93 93 S 3 6 30.30 1026 10 16 0.00 0.00
7:52 am 07:52 Sunny 45 7.2 39 3.9 80 80 Calm 30.29 1026 10 16 0.00 0.00
8:52 am 08:52 Sunny 51 10.6 38 3.3 61 61 S 6 9 30.29 1026 10 16 0.00 0.00
9:52 am 09:52 Sunny 54 12.2 32 0 43 43 VRB 5 7 30.30 1026 10 16 0.00 0.00
10:52 am 10:52 Sunny 56 13.3 33 0.6 42 42 Calm 30.29 1026 10 16 0.00 0.00
11:52 am 11:52 Sunny 57 13.9 34 1.1 42 42 VRB 5 7 30.27 1025 10 16 0.00 0.00
12:52 pm 12:52 Sunny 58 14.4 34 1.1 41 41 VRB 5 7 30.26 1025 10 16 0.00 0.00
1:52 pm 13:52 Sunny 60 15.6 35 1.7 39 39 E 3 6 30.23 1024 10 16 0.00 0.00
2:52 pm 14:52 Sunny 62 16.7 35 1.7 37 37 W 3 6 30.21 1023 10 16 0.00 0.00
3:52 pm 15:52 Sunny 61 16.1 32 0 34 34 WSW 3 6 30.19 1022 10 16 0.00 0.00
4:52 pm 16:52 Sunny 63 17.2 34 1.1 34 34 Calm 30.17 1022 10 16 0.00 0.00
5:52 pm 17:52 Sunny 62 16.7 35 1.7 37 37 Calm 30.15 1021 10 16 0.00 0.00
6:52 pm 18:52 Sunny 62 16.7 37 2.8 40 40 Calm 30.14 1021 10 16 0.00 0.00
7:52 pm 19:52 Sunny 60 15.6 40 4.4 47 47 S 5 7 30.14 1021 10 16 0.00 0.00
8:52 pm 20:52 Mostly Cloudy 59 15 38 3.3 46 46 WSW 5 7 30.16 1021 10 16 0.00 0.00
9:52 pm 21:52 Mostly Cloudy 56 13.3 40 4.4 55 55 SW 5 7 30.18 1022 10 16 0.00 0.00
10:52 pm 22:52 Mostly Cloudy 54 12.2 41 5 62 62 WNW 7 11 30.19 1022 10 16 0.00 0.00
11:52 pm 23:52 Mostly Cloudy 52 11.1 43 6.1 72 72 Calm 30.18 1022 10 16 0.00 0.00

Powered by AerisWeather